Tracking 32140 objects as of 13-Nov-2025
HD Live streaming from Space Station
objects crossing your sky now

THORAD AGENA D DEB

Track THORAD AGENA D DEB now!
10-day predictions


NORAD ID: 4857
Int'l Code: 1970-025EM
Perigee: 770.3 km
Apogee: 837.6 km
Inclination: 99.7 °
Period: 100.8 minutes
Semi major axis: 7174 km
RCS: 0.0497 m2 (small)
Launch date: April 8, 1970
Source: United States (US)
Launch site: AIR FORCE WESTERN TEST RANGE (AFWTR)

Note: This is SATELLITE DEBRIS
Your satellite tracking list
Your tracking list is empty




NASA's NSSDC Master Catalog

Two Line Element Set (TLE):
1 04857U 70025EM  25317.12249028  .00011173  00000-0  44230-2 0  9992
2 04857  99.7494 192.5522 0046864 356.2671   3.8150 14.28483776792096
Source of the keplerian elements: AFSPC